Reno, NV

12:51 AM PDT on May 30, 2017 (GMT -0700)
Reno-Tahoe International

Weather History for KRNO - February, 2013

Change the Weather History Date:

Sunday, February 17, 2013

  Actual Average Record
Temperature  
Mean Temperature 38 °F 40 °F  
Max Temperature 52 °F 52 °F 71 °F (1930)
Min Temperature 23 °F 29 °F 0 °F (1894)
Degree Days  
Heating Degree Days 27 25  
Month to date heating degree days 446 446  
Since 1 July heating degree days 3193 3383  
Cooling Degree Days 0 0  
Month to date cooling degree days 0 0  
Year to date cooling degree days 0 0  
Moisture  
Dew Point 20 °F    
Average Humidity 49    
Maximum Humidity 68    
Minimum Humidity 29    
Precipitation  
Precipitation 0.00 in 0.04 in 0.96 in (1986)
Month to date precipitation T 0.58  
Year to date precipitation 0.12 1.61  
Snow  
Snow 0.00 in 0.20 in 7.10 in (1917)
Month to date snowfall 0.0 2.9  
Since 1 July snowfall 9.3 16.9  
Snow Depth 0.00 in    
Sea Level Pressure  
Sea Level Pressure 30.03 in    
Wind  
Wind Speed 4 mph (NNE)    
Max Wind Speed 14 mph    
Max Gust Speed 16 mph    
Visibility 10 miles    
Events      
T = Trace of Precipitation, MM = Missing Value Source: NWS Daily Summary

Daily Weather History Graph

Daily Weather History Graph

Search for Another Location

Airport or City:

Trip Planner

Search our weather history database for the weather conditions in past years. The results will help you decide how hot, cold, wet, or windy it might be!

Date:

Astronomy

Feb. 17, 2013 Rise Set
Actual Time 6:48 AM PST 5:38 PM PST
Civil Twilight 6:20 AM PST 6:05 PM PST
Nautical Twilight 5:49 AM PST 6:37 PM PST
Astronomical Twilight 5:18 AM PST 7:08 PM PST
Moon 10:46 AM PST (2/17) 12:36 AM PST (2/17)
Length of Visible Light 11h 45m
Length of Day
10h 50m
Waxing Crescent, 50% of the Moon is Illuminated
Feb 17
Waxing Crescent
Feb 17
First Quarter
Feb 25
Full
Mar 4
Last Quarter
Mar 11
New

Hourly Weather History & Observations

Time (PST) Temp. Windchill Dew Point Humidity Pressure Visibility Wind Dir Wind Speed Gust Speed Precip Events Conditions
12:55 AM 32.0 °F 26.4 °F 19.0 °F 59% 30.03 in 10.0 mi North 5.8 mph - N/A   Clear
1:55 AM 30.9 °F 26.2 °F 19.0 °F 61% 30.01 in 10.0 mi Variable 4.6 mph - N/A   Clear
2:55 AM 28.9 °F 23.9 °F 18.0 °F 64% 30.00 in 10.0 mi South 4.6 mph - N/A   Clear
3:55 AM 28.9 °F - 18.0 °F 64% 30.00 in 10.0 mi Calm Calm - N/A   Clear
4:55 AM 27.0 °F - 18.0 °F 69% 30.01 in 10.0 mi Calm Calm - N/A   Clear
5:55 AM 26.1 °F - 18.0 °F 71% 30.03 in 10.0 mi Calm Calm - N/A   Clear
6:55 AM 26.1 °F 21.9 °F 17.1 °F 69% 30.04 in 10.0 mi South 3.5 mph - N/A   Clear
7:55 AM 30.9 °F - 19.0 °F 61% 30.06 in 10.0 mi Calm Calm - N/A   Clear
8:55 AM 35.1 °F 32.2 °F 19.9 °F 54% 30.07 in 10.0 mi South 3.5 mph - N/A   Partly Cloudy
9:55 AM 43.0 °F 41.3 °F 24.1 °F 47% 30.06 in 10.0 mi NE 3.5 mph - N/A   Partly Cloudy
10:55 AM 46.9 °F - 26.1 °F 44% 30.04 in 10.0 mi NW 3.5 mph - N/A   Partly Cloudy
11:55 AM 48.0 °F - 27.0 °F 44% 30.03 in 10.0 mi NE 8.1 mph - N/A   Partly Cloudy
12:55 PM 48.9 °F - 25.0 °F 39% 30.01 in 10.0 mi Variable 3.5 mph - N/A   Partly Cloudy
1:55 PM 51.1 °F - 24.1 °F 35% 29.99 in 10.0 mi North 6.9 mph - N/A   Clear
2:55 PM 52.0 °F - 23.0 °F 32% 29.99 in 10.0 mi Variable 6.9 mph - N/A   Clear
3:55 PM 51.1 °F - 21.0 °F 31% 29.98 in 10.0 mi NNE 4.6 mph - N/A   Clear
4:55 PM 50.0 °F - 19.0 °F 29% 29.99 in 10.0 mi NNE 9.2 mph - N/A   Clear
5:55 PM 45.0 °F 39.3 °F 17.1 °F 33% 30.02 in 10.0 mi NE 11.5 mph - N/A   Clear
6:55 PM 39.9 °F 35.1 °F 16.0 °F 38% 30.05 in 10.0 mi North 6.9 mph - N/A   Clear
7:55 PM 39.9 °F 36.7 °F 16.0 °F 38% 30.04 in 10.0 mi WNW 4.6 mph - N/A   Clear
8:55 PM 37.0 °F - 15.1 °F 41% 30.06 in 10.0 mi Calm Calm - N/A   Clear
9:55 PM 34.0 °F 31.0 °F 17.1 °F 50% 30.05 in 10.0 mi SSW 3.5 mph - N/A   Clear
10:55 PM 34.0 °F - 17.1 °F 50% 30.04 in 10.0 mi Calm Calm - N/A   Clear
11:55 PM 28.9 °F 23.9 °F 16.0 °F 58% 30.05 in 10.0 mi SSW 4.6 mph - N/A   Clear